Torna al catalogo

COSMOS 249 DEB

AttivoLEO
NORAD 3584·DEBRIS·🇷🇺 Russia

Lanciato Oct 20, 1968 da Baikonur Cosmodrome

Loading…

Prossimi Passaggi (prossime 24 ore)

TLE

AggiornatoSource: Space-Track

Epoca: Sep 14, 2026, 09:37 UTC

1 03584U 68091S   26257.40116863  .00006692  00000-0  78310-3 0  9990
2 03584  62.2950  42.9290 0252420 245.1294 112.3350 14.65687740875973

Traccia COSMOS 249 DEB in tempo reale con AllMySat

Download on the App Store